Location: Al Mulaqqa?ah
(24.1833°N, 32.8833°E)
Time: 12:44:11
(UTC+00:00)

SJ 16-02 - Pass Details

Date: 26 September 2021
Orbit: 605 x 617 km, 75.0° (Epoch: 20 October)

Event Time Altitude Azimuth Distance (km) Brightness Sun altitude
Rises 17:06:53 0° 215° (SW) 2,862 5.1 -20.5°
Reaches altitude 10° 17:09:20 10° 226° (SW) 1,962 4.4 -21.0°
Maximum altitude 17:13:10 29° 287° (WNW) 1,119 3.3 -21.9°
Drops below altitude 10° 17:17:02 10° 348° (NNW) 1,975 4.2 -22.8°
Sets 17:19:31 0° 360° (N) 2,883 4.9 -23.3°
